sat.trackr.live / text

‹ back to catalog

STARLINK-31637

NORAD 59258 · 2024-050E

PAYLOAD ACTIVE UNKNOWN

§ Identity

Operator
Country
US
Launch date
2024-03-19
Launch site
AFWTR
Launch vehicle
Mass (kg)
RCS (m²)

Purposes: comms

External: N2YO · Heavens-Above · Gunter

§ Orbital elements

Epoch: 2026-05-25T03:00:57.419712Z

Period
94.11 min
Inclination
53.1596°
Eccentricity
0.0001092
Mean motion
15.30195608 rev/d
Perigee alt
474.5 km
Apogee alt
476.0 km
Semi-major
6,853.4 km
B*
3.0736e-5
RAAN
185.7893°
Arg perigee
73.6771°
Mean anomaly
286.4350°
Rev number
12,225

§ Raw data

STARLINK-316371 59258U 24050E   26145.12566458  .00000551  00000+0  30736-4 0  99982 59258  53.1596 185.7893 0001092  73.6771 286.4350 15.30195608122252

JSON: /api/v1/satellites/59258 · /tle

For live sub-satellite position, see the globe view (requires WebGL).

§ Visibility from observer

Set your observer location to see the next 7 days of passes ≥ 10°. The values pass through the URL so the page stays shareable.

No JS? Fill the form by hand. The geolocation button needs JavaScript.